Powrót do katalogu

NIMBUS 2 DEB

AktywnySSO
NORAD 42440·DEBRIS·🇺🇸 United States

Wystrzelony May 15, 1966 z Vandenberg Space Force Base

Loading…

Następne Przeloty (najbliższe 24 godziny)

TLE

ŚwieżeSource: Space-Track

Epoka: Sep 13, 2026, 06:10 UTC

1 42440U 66040BT  26256.25711198  .00001225  00000-0  21357-2 0  9995
2 42440 100.2764  82.3377 0047483 326.6278  33.1862 13.45369322515042

Śledź NIMBUS 2 DEB w czasie rzeczywistym z AllMySat

Download on the App Store